CMS-01

Last updated on Sun Jul 06 2025 00:02:46 GMT+0000 (Coordinated Universal Time)

1 47256U 20099A 25186.58127410 -.00000149 00000+0 00000+0 0 9997 2 47256 0.0329 96.6552 0003999 175.2006 304.2228 1.00272557 16720
UTC large
Height (km)
Speed (km/s)
/
Latitude / Longitude
Inclination (degrees)
Orbital Period (minutes)
Azimuth
Elevation
Range (km)
Doppler Factor

Next 0 passes for location: London (51.5072 / 0.1276)

Sorry there are no passes over London.